Location: Aubrey
(33.1990°N, 85.1361°W)
Time: 17:30:52
(UTC+00:00)

Envisat - Pass Details

Date: 27 September 2021
Orbit: 764 x 766 km, 98.2° (Epoch: 18 October)

Event Time Altitude Azimuth Distance (km) Brightness Sun altitude
Rises 09:27:58 0° 38° (NE) 3,232 7.0 -26.5°
Reaches altitude 10° 09:31:40 10° 65° (ENE) 2,300 6.5 -25.8°
Maximum altitude 09:33:55 13° 92° (E) 2,097 6.1 -25.3°
Drops below altitude 10° 09:36:11 10° 119° (ESE) 2,294 6.0 -24.9°
Sets 09:39:50 0° 147° (SSE) 3,214 6.5 -24.1°
